KINEIS-3E

Satellite information

Favourite Embed

Satellite Type and Status

PAYLOADIN ORBIT

Key statistics

Satellite KINEIS-3E at a glance.

Uptime

289

Days in orbit

Revolutions

≈ 14.7

Per day

Orbit

SSO

Sun Synchronous Orbit

Inclination

98.0

Latest

Satellite identification and parameters

Extended collection of information and parameters for KINEIS-3E.

Object identification

Identified? True

Debris? False

Object name: KINEIS-3E

International designator: 2024-172C

Object number (NORAD): 61222

Object ID (CCSDS): 61222

Country: FRANCE (FR)

Current information (Y/N): Y

RCS size: MEDIUM

Orbital parameters

Period: 97.814 minutes

Inclination: 98.0301 deg

SMA: 7032.268 km

Apoapsis: 655.271 km

Periapsis: 652.994 km

RAAN: 275.327 deg

Eccentricy: 0.0001619

Argument of periapsis: 116.1739 deg

Mean anomaly: 243.9635 deg

Mean motion: 14.72175739 rev/day

Mean motion (dot): 0.00001785 rev/day2

B* drag term: 0.00029115 1/REarth

Two-line elements (TLE)

Creation date: July 5, 2025, 7:16 a.m.

Reference frame: TEME

Reference center: EARTH

Epoch: July 5, 2025, 5:47 a.m. UTC

TLE line 0: 0 KINEIS-3E

TLE line 1: 1 61222U 24172C 25186.24164419 .00001785 00000-0 29115-3 0 9994

TLE line 2: 2 61222 98.0301 275.3270 0001619 116.1739 243.9635 14.72175739 42304

Live tracking on map

Real-time ground track for satellite KINEIS-3E.

In-orbit conjunctions

There are no conjunctions computed for KINEIS-3E, at the moment. Check back to stay up to date, as we update our databases every day.

Go to all conjunctions

Associated space launch

Second batch of five satellites for the French Kinéis IoT constellation designed to operate with 25 nanosatellites of 30 kg each.

KINEIS-3E was lifted into orbit during the mission ‘Electron | Kinéis Killed the RadIoT Star (Kinéis 6-10)’, on board a Electron space rocket.

The launch took place on Sept. 20, 2024, 11:01 p.m. from Rocket Lab Launch Complex 1A.

For more information about the launch, click the button.

Launch to space Electron | Kinéis Killed the RadIoT Star (Kinéis 6-10)
Electron | Kinéis Killed the RadIoT Star (Kinéis 6-10)

Agency: Kinéis

Status: Launch Successful

Launch date: Sept. 20, 2024, 11:01 p.m. UTC

Rocket: Electron

Launch pad: Rocket Lab Launch Complex 1A

Location: Rocket Lab Launch Complex 1, Mahia Peninsula, New Zealand

...

Latest news about this satellite

News about space launch
Electron launches second set of Kinéis satellites

An Electron launched a second set of satellites for French startup Kinéis Sept. 20, putting that company on track to begin offering Internet of Things services.

News about space launch
Rocket Lab launches 5 Internet of Things satellites following mid-week scrub

The mission will be the 53rd launch of an Electron rocket to date. Liftoff from Launch Complex 1 Pad A happened on Sept. 21 at 11:01 a.m. NZST (Sept. 20 at 7:01 p.m. EDT, 2301 UTC).

News about space launch
Launch Roundup: Falcon 9 and Electron to extend satellite constellations

This week’s manifest includes the delayed launches of a Falcon 9 with Galileo global positioning satellites and an Electron with a second batch of satellites for Kinéis. SpaceX will also launch one batch of Starlink satellites from California as the const...


Newsletter sign-up

Weekly statistics, charts and insights to help you stay on top of the space industry.